Date String (YYYY-MM-DD hh:mm:ss) UTC,Instrument flags,Ambient pressure (hPa),Sample flow (lpm),Bypass flow (lpm),Sample temperature (°C),Ambient temperature (°C),ASC tube jacket temperature (°C),LED temperature (°C),Box temperature (°C),Sample RH (%),Span deviation,Mass concentration (μg/m³),Mass concentration (μg/m³),Mass concentration (μg/m³)
DateTimeUTC,F1_M11,P_M11,Q1_M11,Q2_M11,T1_M11,T2_M11,T3_M11,T4_M11,T5_M11,U1_M11,ZSPAN_M11,X2_M11,X0_M11,X1_M11
2021-10-03 10:00:00,,0831.2,5.01,0.00,29.4,28.3,00.0,38.6,31.1,16.5,0002.5,0005.17,0009.39,0004.61
2021-10-03 10:01:00,,0831.2,5.01,0.00,29.4,28.3,00.0,38.6,31.1,16.5,0002.3,0005.15,0009.28,0004.60
2021-10-03 10:02:00,,0831.2,5.01,0.00,29.4,28.3,00.0,38.6,31.1,16.5,0002.4,0005.15,0009.30,0004.60
2021-10-03 10:03:00,,0831.2,4.99,0.00,29.4,28.3,00.0,38.6,31.1,16.4,0002.6,0005.17,0009.37,0004.58
2021-10-03 10:04:00,,0831.2,5.00,0.00,29.4,28.3,00.0,38.6,31.1,16.4,0002.4,0005.19,0009.51,0004.56
2021-10-03 10:05:00,,0831.2,5.01,0.00,29.4,28.3,00.0,38.6,31.1,16.4,0002.0,0005.21,0009.58,0004.55
2021-10-03 10:06:00,,0831.2,5.01,0.00,29.4,28.3,00.0,38.6,31.1,16.4,0002.4,0005.18,0009.03,0004.53
2021-10-03 10:07:00,,0831.2,5.00,0.00,29.4,28.3,00.0,38.6,31.1,16.4,0002.2,0005.16,0009.44,0004.53
2021-10-03 10:08:00,,0831.2,4.98,0.00,29.4,28.3,00.0,38.6,31.1,16.4,0001.8,0005.15,0009.58,0004.52
2021-10-03 10:09:00,,0831.2,5.01,0.00,29.4,28.3,00.0,38.6,31.1,16.4,0001.4,0005.10,0009.74,0004.50
2021-10-03 10:10:00,,0831.2,5.01,0.00,29.4,28.3,00.0,38.6,31.1,16.4,0001.5,0005.07,0009.81,0004.50
2021-10-03 10:11:00,,0831.2,5.00,0.00,29.4,28.2,00.0,38.6,31.1,16.4,0001.5,0005.03,0009.71,0004.49
2021-10-03 10:12:00,,0831.1,4.99,0.00,29.4,28.3,00.0,38.6,31.1,16.4,0001.8,0005.04,0009.72,0004.50
2021-10-03 10:13:00,,0831.2,5.00,0.00,29.4,28.3,00.0,38.6,31.1,16.3,0001.8,0005.05,0009.72,0004.51
2021-10-03 10:14:00,,0831.1,5.01,0.00,29.4,28.3,00.0,38.6,31.1,16.2,0001.4,0005.02,0009.69,0004.52
2021-10-03 10:15:00,,0831.2,5.00,0.00,29.4,28.3,00.0,38.6,31.0,16.1,0001.7,0004.98,0009.53,0004.52
2021-10-03 10:16:00,,0831.2,5.01,0.00,29.4,28.3,00.0,38.6,31.1,15.9,0002.0,0004.98,0009.50,0004.52
2021-10-03 10:17:00,,0831.2,4.99,0.00,29.4,28.3,00.0,38.6,31.1,15.9,0001.4,0004.99,0010.02,0004.52
2021-10-03 10:18:00,,0831.2,5.00,0.00,29.4,28.3,00.0,38.5,31.0,15.8,0001.1,0005.02,0009.86,0004.52
2021-10-03 10:19:00,,0831.2,5.00,0.00,29.3,28.2,00.0,38.5,31.0,15.7,0001.2,0005.04,0009.80,0004.53
2021-10-03 10:20:00,,0831.2,4.99,0.00,29.3,28.2,00.0,38.5,31.0,15.8,0001.5,0005.04,0009.63,0004.53
2021-10-03 10:21:00,,0831.2,5.01,0.00,29.3,28.2,00.0,38.5,31.0,15.9,0001.5,0005.07,0009.79,0004.52
2021-10-03 10:22:00,,0831.2,4.98,0.00,29.3,28.2,00.0,38.5,31.0,15.9,0001.6,0005.10,0010.31,0004.51
2021-10-03 10:23:00,,0831.2,5.00,0.00,29.3,28.2,00.0,38.5,31.0,16.0,0001.4,0005.10,0010.51,0004.50
2021-10-03 10:24:00,,0831.2,5.01,0.00,29.3,28.3,00.0,38.5,31.0,16.0,0001.7,0005.09,0010.59,0004.48
2021-10-03 10:25:00,,0831.2,4.99,0.00,29.3,28.3,00.0,38.5,31.0,16.1,0002.2,0005.13,0010.69,0004.49
2021-10-03 10:26:00,,0831.2,4.99,0.00,29.3,28.2,00.0,38.5,31.0,16.0,0002.1,0005.15,0010.98,0004.49
2021-10-03 10:27:00,,0831.1,5.01,0.00,29.3,28.2,00.0,38.5,31.0,16.0,0002.2,0005.16,0010.88,0004.49
2021-10-03 10:28:00,,0831.2,5.00,0.00,29.3,28.2,00.0,38.5,31.0,15.9,0002.2,0005.15,0010.40,0004.47
2021-10-03 10:29:00,,0831.2,5.00,0.00,29.3,28.3,00.0,38.5,31.0,15.9,0002.7,0005.14,0010.16,0004.47
2021-10-03 10:30:00,,0831.2,5.01,0.00,29.3,28.2,00.0,38.5,31.0,15.8,0003.0,0005.11,0010.32,0004.45
2021-10-03 10:31:00,,0831.2,5.00,0.00,29.3,28.2,00.0,38.5,31.0,15.9,0002.7,0005.10,0010.28,0004.45
2021-10-03 10:32:00,,0831.2,5.00,0.00,29.3,28.3,00.0,38.5,31.0,15.8,0002.4,0005.09,0010.06,0004.44
2021-10-03 10:33:00,,0831.2,4.99,0.00,29.3,28.3,00.0,38.5,31.0,15.8,0002.1,0005.07,0009.76,0004.43
2021-10-03 10:34:00,,0831.2,5.01,0.00,29.3,28.2,00.0,38.5,31.0,15.8,0001.9,0005.05,0009.95,0004.43
2021-10-03 10:35:00,,0831.2,4.99,0.00,29.3,28.2,00.0,38.5,31.0,15.8,0001.2,0005.01,0009.80,0004.42
2021-10-03 10:36:00,,0831.2,5.00,0.00,29.3,28.2,00.0,38.5,31.0,15.8,0000.7,0005.00,0009.71,0004.40
2021-10-03 10:37:00,,0831.2,5.01,0.00,29.3,28.2,00.0,38.5,30.9,15.7,0001.0,0004.98,0009.55,0004.40
2021-10-03 10:38:00,,0831.2,4.99,0.00,29.3,28.2,00.0,38.5,31.0,15.8,0001.3,0005.00,0009.79,0004.39
2021-10-03 10:39:00,,0831.2,5.02,0.00,29.3,28.2,00.0,38.5,31.0,15.8,0001.6,0004.97,0010.15,0004.39
2021-10-03 10:40:00,,0831.2,4.98,0.00,29.3,28.2,00.0,38.5,31.0,15.9,0001.2,0004.96,0010.30,0004.37
2021-10-03 10:41:00,,0831.2,5.01,0.00,29.3,28.2,00.0,38.5,31.0,15.7,0000.5,0004.96,0010.06,0004.37
2021-10-03 10:42:00,,0831.2,4.99,0.00,29.3,28.2,00.0,38.5,30.9,15.5,0000.5,0004.96,0010.19,0004.36
2021-10-03 10:43:00,,0831.3,4.99,0.00,29.3,28.2,00.0,38.5,31.0,15.5,0000.8,0004.93,0010.50,0004.34
2021-10-03 10:44:00,,0831.2,5.00,0.00,29.3,28.2,00.0,38.5,30.9,15.5,0000.9,0004.93,0010.39,0004.33
2021-10-03 10:45:00,,0831.2,5.01,0.00,29.3,28.2,00.0,38.4,30.9,15.6,0000.9,0004.90,0009.94,0004.30
2021-10-03 10:46:00,,0831.2,4.98,0.00,29.3,28.2,00.0,38.4,30.9,15.7,0001.0,0004.87,0009.88,0004.28
2021-10-03 10:47:00,,0831.2,5.01,0.00,29.3,28.2,00.0,38.4,31.0,15.7,0001.3,0004.81,0009.73,0004.26
2021-10-03 10:48:00,,0831.2,5.00,0.00,29.3,28.2,00.0,38.4,31.0,15.7,0001.1,0004.78,0009.80,0004.25
2021-10-03 10:49:00,,0831.2,4.99,0.00,29.3,28.2,00.0,38.4,30.9,15.7,0000.6,0004.73,0009.80,0004.25
2021-10-03 10:50:00,,0831.2,5.00,0.00,29.2,28.2,00.0,38.4,30.9,15.7,0000.2,0004.70,0009.31,0004.23
2021-10-03 10:51:00,,0831.2,5.00,0.00,29.2,28.2,00.0,38.4,30.9,15.7,-000.3,0004.70,0009.31,0004.22
2021-10-03 10:52:00,,0831.1,5.00,0.00,29.2,28.2,00.0,38.4,30.9,15.7,-000.4,0004.70,0009.81,0004.20
2021-10-03 10:53:00,,0831.2,5.00,0.00,29.2,28.2,00.0,38.4,31.0,15.7,-000.6,0004.69,0009.74,0004.21
2021-10-03 10:54:00,,0831.2,4.98,0.00,29.2,28.2,00.0,38.4,30.9,15.6,-000.5,0004.70,0009.25,0004.22
2021-10-03 10:55:00,,0831.2,4.99,0.00,29.2,28.2,00.0,38.4,30.9,15.7,-000.3,0004.69,0009.36,0004.23
2021-10-03 10:56:00,,0831.2,5.01,0.00,29.2,28.2,00.0,38.4,30.9,15.6,0000.2,0004.73,0009.50,0004.24
2021-10-03 10:57:00,,0831.2,4.99,0.00,29.2,28.2,00.0,38.4,30.9,15.7,0000.7,0004.76,0009.54,0004.26
2021-10-03 10:58:00,,0831.2,5.00,0.00,29.2,28.1,00.0,38.4,30.9,15.8,0001.1,0004.78,0009.56,0004.27
2021-10-03 10:59:00,,0831.1,5.01,0.00,29.2,28.1,00.0,38.4,30.9,15.8,0001.0,0004.77,0009.30,0004.28
